Regional Weather Roundup
Issued by NWS

Home | Current Version | Previous Version | Graphics & Text | Print | Product List | Glossary Off
Versions: 1 2 3 4 5 6 7 8 9 10 11 12 13 14 15 16 17 18 19 20 21 22 23 24 25 26 27 28 29 30 31 32 33 34 35 36 37 38 39 40 41 42 43 44 45 46 47 48 49 50

000
ASUS43 KMKX 270521
RWRWI

WISCONSIN REGIONAL WEATHER ROUNDUP
NATIONAL WEATHER SERVICE MILWAUKEE/SULLIVAN WI
1200 AM CDT MON APR 27 2015

NOTE: "FAIR" INDICATES FEW OR NO CLOUDS BELOW 12,000 FEET WITH NO
SIGNIFICANT WEATHER AND/OR OBSTRUCTIONS TO VISIBILITY.

WIZ001-002-006>008-014>016-023>028-270600-
NORTHWEST WISCONSIN

CITY           SKY/WX    TMP DP  RH WIND       PRES   REMARKS
SUPERIOR ARPT  CLEAR     30  28  90 CALM      30.20S
ASHLAND        CLEAR     30  29  96 CALM      30.19S
HAYWARD        CLEAR     33  25  72 CALM      30.17R
SIREN          CLEAR     35  26  71 CALM      30.17R
CUMBERLAND     CLEAR     37  27  65 N5        30.15S WCI  34
RICE LAKE      CLEAR     34  29  80 N5        30.17R WCI  30
CHETEK         CLEAR     41  28  59 N3        30.15S
LADYSMITH      CLEAR     38  25  59 N6        30.16S WCI  34
EAU CLAIRE     CLEAR     44  24  45 N5        30.13S
MENOMONIE      CLEAR     46  24  42 N3        30.15R
NEW RICHMOND   CLEAR     38  23  54 N5        30.16R WCI  35
OSCEOLA        CLEAR     40  27  59 CALM      30.19R
$$

WIZ003>005-009-010-017-018-270600-
NORTH CENTRAL WISCONSIN

CITY           SKY/WX    TMP DP  RH WIND       PRES   REMARKS
MANITOWISH WTR CLEAR     32  26  79 CALM      30.14S
ARBOR VITAE    CLEAR     37  29  73 N3        30.13S
WOODRUFF       CLEAR     37  29  73 N3        30.13S
RHINELANDER    CLEAR     38  28  67 N5        30.13S WCI  34
EAGLE RIVER    CLEAR     35  27  71 N3        30.13S
LAND O LAKES   CLEAR     33  28  79 N6        30.14S WCI  28
PHILLIPS       CLEAR     35  26  67 NW6       30.14R WCI  30
TOMAHAWK       CLEAR     35  28  74 CALM      30.14R
MEDFORD        CLEAR     38  28  66 NE7       30.12S WCI  33
MERRILL        CLEAR     41  30  66 CALM      30.12S
$$

WIZ029-030-035-036-043>047-270600-
CENTRAL WISCONSIN

CITY           SKY/WX    TMP DP  RH WIND       PRES   REMARKS
WAUSAU         CLEAR     45  30  55 CALM      30.10R
MOSINEE        CLEAR     43  30  61 NE5       30.12R
MARSHFIELD     CLEAR     46  28  49 NE12      30.11R
STEVENS POINT  CLEAR     40  28  62 CALM      30.12S
WAUPACA        CLEAR     41  31  66 NW3       30.12R
WAUTOMA        CLEAR     41  29  62 CALM      30.12R
WISC RAPIDS    CLEAR     44  26  49 SE7       30.12R
CAMP DOUGLAS   CLEAR     47  27  45 CALM      30.09R
$$

WIZ011>013-019>022-031-037>040-048>050-270600-
NORTHEAST WISCONSIN

CITY           SKY/WX    TMP DP  RH WIND       PRES   REMARKS
ANTIGO         CLEAR     39  29  67 N7        30.11S WCI  34
SHAWANO        CLEAR     39  33  81 CALM      30.11S
OCONTO         PTCLDY    42  30  63 CALM      30.09S
STURGEON BAY   MOCLDY    41  28  60 N9        30.11R
GREEN BAY      CLEAR     41  34  76 N6        30.10R
MANITOWOC      FAIR      39  33  79 N6        30.09R WCI  35
APPLETON       CLEAR     37  28  70 N5        30.10R WCI  34
CLINTONVILLE   CLEAR     36  30  80 CALM      30.11R
OSHKOSH        CLEAR     41  32  70 CALM      30.10R
$$

WIZ032>034-041-042-053>061-270600-
SOUTHWEST WISCONSIN

CITY           SKY/WX    TMP DP  RH WIND       PRES   REMARKS
LA CROSSE      CLEAR     48  30  49 NW6       30.10R
SPARTA         CLEAR     46  27  47 N6        30.11R
VIROQUA        CLEAR     44  28  53 N8        30.09R
BOSCOBEL       CLEAR     38  31  76 CALM      30.08R
PRAIRIE DU CHI CLEAR     41  30  64 CALM      30.08R
PLATTEVILLE    CLEAR     44  30  58 NW3       30.05R
$$

WIZ056-057-062-063-064-067-068-270600-
SOUTH CENTRAL WISCONSIN

CITY           SKY/WX    TMP DP  RH WIND       PRES   REMARKS
REEDSBURG      FAIR      46  29  51 E3        30.09R
BARABOO/DELLS  FAIR      43  28  56 E7        30.09R
LONE ROCK      CLEAR     49  27  42 NE10      30.07R
MINERAL POINT  CLEAR     48  23  37 N8        30.05R
MADISON        CLEAR     41  27  57 E6        30.09R
MIDDLETON      CLEAR     46  27  49 E7        30.09R
WATERTOWN      CLEAR     38  31  74 NE3       30.09R
MONROE         CLEAR     41  30  65 E7        30.07R
JANESVILLE     CLEAR     37  28  70 CALM      30.08R
$$

WIZ051-052-058>065-066-070>072-270600-
SOUTHEAST WISCONSIN

CITY           SKY/WX    TMP DP  RH WIND       PRES   REMARKS
MILWAUKEE      CLEAR     41  30  65 N10       30.08R
WAUKESHA       CLEAR     37  30  75 N3        30.09S
MILWAUKEE/TIMM CLEAR     41  30  65 N6        30.08S
RACINE         CLEAR     41  31  67 N13       30.08R
BURLINGTON     CLEAR     37  28  71 N5        30.08R WCI  33
KENOSHA        CLEAR     41  31  67 N9        30.07R
FOND DU LAC    CLEAR     41  30  65 NE6       30.09S
SHEBOYGAN      CLEAR     38  30  73 N6        30.08R WCI  33
WEST BEND      CLEAR     37  30  75 NW3       30.08S
JUNEAU         CLEAR     39  30  69 CALM      30.10R
$$

LSZ147-162-270600-
LAKE SUPERIOR

STATION/POSITION TIME  TEMP    WIND        PRES    WAVE
                       AIR SEA DIR/SP/G            HT/PER
                 (UTC) (F)     (DEG/KT/KT) (MB)    (FT/S)
W MID LAKE BUOY  0450   36 35  300/  6/  6 1023.4S   1
DEVILS ISLAND    0500   38      CALM  /  1 1023.1S
PORT WING        0400   33     140/  2/  3 1022.0S
SAXON HARBOR     0430   31      CALM  /  3 1022.0R
$$

LMZ867-665-643>646-270600-
LAKE MICHIGAN

STATION/POSITION TIME  TEMP    WIND        PRES    WAVE
                       AIR SEA DIR/SP/G            HT/PER
                 (UTC) (F)     (DEG/KT/KT) (MB)    (FT/S)
CHAMBERS ISLAND  0400   41     320/  6/  6 1019.0S
NORTHPORT PIER   0400   41     320/  8/ 11 1018.3S
SISTER BAY       0317   44     360/ 14/ 17   N/A
KEWAUNEE LAKESHO 0400   43     340/  4/  6 1017.6S
SHEBOYGAN LAKESH 0500   41      10/ 12/ 14 1019.3R
PORT WASHINGTON  0400   43     360/  6/ 12 1019.0
MILWAUKEE LAKESH 0500   42      10/ 13/ 15   N/A
KENOSHA   LAKESH 0500   43      10/ 18/ 21 1017.9R
$$

TC  - TEMPERATURE IN CELSIUS
VSB - VISIBILITY IN STATUTE MILES
WCI - WIND CHILL INDEX
HX  - HEAT INDEX




USA.gov is the U.S. government's official web portal to all federal, state and local government web resources and services.